Location: Terra Rouge Observatory
(46.0000°N, 62.7500°W)
Time: 05:17:14
(UTC-03:00)

NOSS 3-1 (A) - Visible Passes

Search period start: 28 July 2014 00:00
Search period end: 07 August 2014 00:00
Orbit: 897 x 1316 km, 63.4° (Epoch: 20 July)

Date Brightness Start Highest point End Pass type
(mag) Time Alt. Az. Time Alt. Az. Time Alt. Az.
28 Jul 6.3 00:41:32 10° NW 00:46:20 19° N 00:51:26 10° NE visible
28 Jul 5.5 02:33:06 10° NNW 02:39:36 34° NNE 02:46:37 10° E visible
28 Jul 4.0 04:23:54 10° NW 04:31:22 83° SW 04:39:25 10° SSE visible
28 Jul 5.7 22:01:56 10° W 22:07:28 30° NNW 22:13:30 10° NNE visible
28 Jul 6.3 23:56:13 10° NW 00:00:51 19° N 00:05:48 10° NE visible
29 Jul 5.8 01:48:25 10° NNW 01:54:24 28° NNE 02:00:50 10° E visible
29 Jul 4.2 03:39:13 10° NW 03:46:37 73° NE 03:54:38 10° SE visible
29 Jul 5.2 21:16:31 10° WSW 21:22:21 39° NW 21:28:47 10° NNE visible
29 Jul 6.3 23:10:41 10° NW 23:15:24 20° N 23:20:26 10° NE visible
30 Jul 6.0 01:03:38 10° NNW 01:09:06 23° NNE 01:14:56 10° ENE visible
30 Jul 4.7 02:54:35 10° NW 03:01:45 53° NE 03:09:30 10° ESE visible
30 Jul 4.3 04:45:41 10° NW 04:52:47 46° WSW 05:00:22 10° S visible
30 Jul 6.1 22:25:02 10° WNW 22:30:00 22° NNW 22:35:21 10° NNE visible
31 Jul 6.2 00:18:41 10° NW 00:23:41 20° NNE 00:29:01 10° ENE visible
31 Jul 5.2 02:09:58 10° NNW 02:16:45 40° NE 02:24:05 10° ESE visible
31 Jul 4.0 04:00:50 10° NW 04:08:14 67° WSW 04:16:12 10° SSE visible
31 Jul 5.9 21:39:22 10° W 21:44:41 26° NNW 21:50:27 10° NNE visible
31 Jul 6.2 23:33:31 10° NW 23:38:14 19° N 23:43:15 10° NE visible
01 Aug 5.5 01:25:19 10° NNW 01:31:38 31° NNE 01:38:25 10° E visible
01 Aug 4.0 03:16:06 10° NW 03:23:34 88° NE 03:31:38 10° SE visible
01 Aug 4.9 05:08:05 10° WNW 05:13:54 24° WSW 05:20:00 10° SSW visible
01 Aug 6.2 22:48:07 10° NW 22:52:46 19° N 22:57:43 10° NE visible
02 Aug 5.8 00:40:36 10° NNW 00:46:23 26° NNE 00:52:35 10° ENE visible
02 Aug 4.3 02:31:26 10° NW 02:38:46 65° NE 02:46:42 10° SE visible
02 Aug 4.5 04:22:47 10° NW 04:29:33 37° WSW 04:36:42 10° S visible
02 Aug 6.1 22:02:32 10° WNW 22:07:19 20° NNW 22:12:28 10° NE visible
02 Aug 6.0 23:55:46 10° NNW 00:01:02 22° NNE 00:06:39 10° ENE visible
03 Aug 4.8 01:46:49 10° NNW 01:53:51 48° NE 02:01:28 10° ESE visible
03 Aug 4.1 03:37:49 10° NW 03:45:04 54° WSW 03:52:49 10° SSE visible
03 Aug 6.0 21:16:51 10° WNW 21:21:57 23° NNW 21:27:27 10° NNE visible
03 Aug 6.1 23:10:44 10° NW 23:15:36 20° N 23:20:47 10° NE visible
04 Aug 5.2 01:02:12 10° NNW 01:08:48 36° NE 01:15:57 10° E visible
04 Aug 3.9 02:53:00 10° NW 03:00:28 77° SW 03:08:30 10° SSE visible
04 Aug 5.2 04:45:39 10° WNW 04:50:32 18° WSW 04:55:36 10° SSW visible
04 Aug 6.1 22:25:29 10° NW 22:30:08 19° N 22:35:06 10° NE visible
05 Aug 5.5 00:17:32 10° NNW 00:23:38 29° NNE 00:30:12 10° E visible
05 Aug 4.0 02:08:19 10° NW 02:15:44 78° NE 02:22:24 16° SE visible
05 Aug 4.8 04:00:00 10° WNW 04:06:15 29° WSW 04:09:39 21° SSW visible
05 Aug 6.1 21:40:00 10° NW 21:44:41 19° N 21:49:40 10° NE visible
05 Aug 5.8 23:32:46 10° NNW 23:38:21 24° NNE 23:44:19 10° ENE visible
06 Aug 4.4 01:23:40 10° NW 01:30:54 57° NE 01:37:07 17° ESE visible
06 Aug 4.3 03:14:51 10° NW 03:21:51 43° WSW 03:24:26 33° SSW visible
06 Aug 5.9 22:47:52 10° NW 22:52:58 21° NNE 22:58:24 10° ENE visible
